Time,TemperatureF,DewpointF,PressureIn,WindDirection,WindDirectionDegrees,WindSpeedMPH,WindSpeedGustMPH,Humidity,HourlyPrecipIn,Conditions,Clouds,dailyrainin,SoftwareType,DateUTC
2013-08-25 00:01:00,78.1,71.8,29.06,South,180,1.1,0.0,81,0.00,RA,,0.00,WeatherDisplay:10.37,2013-08-25 05:01:00,
2013-08-25 00:06:00,78.1,71.8,29.06,South,180,0.0,0.0,81,0.00,RA,,0.00,WeatherDisplay:10.37,2013-08-25 05:06:00,
2013-08-25 00:11:00,78.1,71.8,29.06,SW,225,0.0,0.0,81,0.00,CLR,,0.00,WeatherDisplay:10.37,2013-08-25 05:11:00,
2013-08-25 00:16:00,78.1,71.8,29.06,South,180,1.1,0.0,81,0.00,CLR,,0.00,WeatherDisplay:10.37,2013-08-25 05:16:00,
2013-08-25 00:21:00,78.1,71.8,29.06,South,180,1.1,0.0,81,0.00,CLR,,0.00,WeatherDisplay:10.37,2013-08-25 05:21:00,
2013-08-25 00:26:00,78.1,71.8,29.06,WSW,248,0.0,0.0,81,0.00,CLR,,0.00,WeatherDisplay:10.37,2013-08-25 05:26:00,
2013-08-25 00:31:00,78.1,71.8,29.06,South,180,0.0,0.0,81,0.00,CLR,,0.00,WeatherDisplay:10.37,2013-08-25 05:31:00,
2013-08-25 00:36:00,78.1,72.1,29.06,South,180,2.3,0.0,82,0.00,CLR,,0.00,WeatherDisplay:10.37,2013-08-25 05:36:00,
2013-08-25 00:41:00,77.7,71.8,29.06,South,180,0.0,0.0,82,0.00,CLR,,0.00,WeatherDisplay:10.37,2013-08-25 05:41:00,
2013-08-25 00:46:00,77.7,71.8,29.06,South,180,15.0,15.0,82,0.00,CLR,,0.00,WeatherDisplay:10.37,2013-08-25 05:46:00,
2013-08-25 00:51:00,77.7,71.4,29.06,South,180,0.0,0.0,81,0.00,CLR,,0.00,WeatherDisplay:10.37,2013-08-25 05:51:00,
2013-08-25 00:56:00,77.7,71.8,29.06,SW,225,1.1,0.0,82,0.00,CLR,,0.00,WeatherDisplay:10.37,2013-08-25 05:56:00,
2013-08-25 01:01:00,77.7,71.8,29.06,South,180,0.0,0.0,82,0.00,CLR,,0.00,WeatherDisplay:10.37,2013-08-25 06:01:00,
2013-08-25 01:06:00,77.7,71.8,29.06,SW,225,0.0,0.0,82,0.00,CLR,,0.00,WeatherDisplay:10.37,2013-08-25 06:06:00,
2013-08-25 01:11:00,77.5,71.6,29.06,South,180,0.0,0.0,82,0.00,CLR,,0.00,WeatherDisplay:10.37,2013-08-25 06:11:00,
2013-08-25 01:16:00,77.5,71.6,29.06,South,180,0.0,0.0,82,0.00,CLR,,0.00,WeatherDisplay:10.37,2013-08-25 06:16:00,
2013-08-25 01:21:00,77.4,71.4,29.06,SW,225,0.0,0.0,82,0.00,CLR,,0.00,WeatherDisplay:10.37,2013-08-25 06:21:00,
2013-08-25 01:26:00,77.5,72.0,29.06,South,180,0.0,0.0,83,0.00,CLR,,0.00,WeatherDisplay:10.37,2013-08-25 06:26:00,
2013-08-25 01:31:00,77.4,71.8,29.07,SW,225,0.0,0.0,83,0.00,CLR,,0.00,WeatherDisplay:10.37,2013-08-25 06:31:00,
2013-08-25 01:36:00,77.4,71.8,29.06,SW,225,0.0,0.0,83,0.00,CLR,,0.00,WeatherDisplay:10.37,2013-08-25 06:36:00,
2013-08-25 01:41:00,77.4,71.8,29.06,South,180,0.0,0.0,83,0.00,CLR,,0.00,WeatherDisplay:10.37,2013-08-25 06:41:00,
2013-08-25 01:46:00,77.4,71.8,29.06,SW,225,0.0,0.0,83,0.00,CLR,,0.00,WeatherDisplay:10.37,2013-08-25 06:46:00,
2013-08-25 01:51:00,77.4,71.8,29.06,South,180,0.0,0.0,83,0.00,CLR,,0.00,WeatherDisplay:10.37,2013-08-25 06:51:00,
2013-08-25 01:56:00,77.4,71.8,29.06,South,180,0.0,0.0,83,0.00,CLR,,0.00,WeatherDisplay:10.37,2013-08-25 06:56:00,
2013-08-25 02:01:00,77.4,71.4,29.06,South,180,0.0,0.0,82,0.00,CLR,,0.00,WeatherDisplay:10.37,2013-08-25 07:01:00,
2013-08-25 02:06:00,77.4,71.8,29.06,South,180,0.0,0.0,83,0.00,CLR,,0.00,WeatherDisplay:10.37,2013-08-25 07:06:00,
2013-08-25 02:11:00,77.5,71.6,29.06,SW,225,1.1,0.0,82,0.00,CLR,,0.00,WeatherDisplay:10.37,2013-08-25 07:11:00,
2013-08-25 02:16:00,77.5,71.6,29.07,South,180,0.0,0.0,82,0.00,CLR,,0.00,WeatherDisplay:10.37,2013-08-25 07:16:00,
2013-08-25 02:21:00,77.5,72.0,29.06,SW,225,0.0,0.0,83,0.00,CLR,,0.00,WeatherDisplay:10.37,2013-08-25 07:21:00,
2013-08-25 02:26:00,77.5,71.6,29.06,SW,225,0.0,0.0,82,0.00,CLR,,0.00,WeatherDisplay:10.37,2013-08-25 07:26:00,
2013-08-25 02:31:00,77.5,72.0,29.06,South,180,0.0,0.0,83,0.00,CLR,,0.00,WeatherDisplay:10.37,2013-08-25 07:31:00,
2013-08-25 02:36:00,77.4,71.8,29.06,South,180,0.0,0.0,83,0.00,CLR,,0.00,WeatherDisplay:10.37,2013-08-25 07:36:00,
2013-08-25 02:41:00,77.4,71.8,29.07,SW,225,0.0,0.0,83,0.00,CLR,,0.00,WeatherDisplay:10.37,2013-08-25 07:41:00,
2013-08-25 02:46:00,77.5,71.6,29.07,South,180,0.0,0.0,82,0.00,CLR,,0.00,WeatherDisplay:10.37,2013-08-25 07:46:00,
2013-08-25 02:51:00,77.5,71.6,29.06,South,180,0.0,0.0,82,0.00,CLR,,0.00,WeatherDisplay:10.37,2013-08-25 07:51:00,
2013-08-25 02:56:00,77.5,71.6,29.07,SW,225,0.0,0.0,82,0.00,CLR,,0.00,WeatherDisplay:10.37,2013-08-25 07:56:00,
2013-08-25 03:01:00,77.5,71.6,29.06,South,180,0.0,0.0,82,0.00,CLR,,0.00,WeatherDisplay:10.37,2013-08-25 08:01:00,
2013-08-25 03:06:00,77.5,71.6,29.06,South,180,0.0,0.0,82,0.00,CLR,,0.00,WeatherDisplay:10.37,2013-08-25 08:06:00,
2013-08-25 03:11:00,77.7,71.4,29.06,SW,225,0.0,3.8,81,0.00,CLR,,0.00,WeatherDisplay:10.37,2013-08-25 08:11:00,
2013-08-25 03:16:00,77.7,71.4,29.06,South,180,0.0,0.0,81,0.00,CLR,,0.00,WeatherDisplay:10.37,2013-08-25 08:16:00,
2013-08-25 03:21:00,78.1,71.8,29.06,SW,225,0.0,0.0,81,0.00,CLR,,0.00,WeatherDisplay:10.37,2013-08-25 08:21:00,
2013-08-25 03:26:00,78.1,71.4,29.06,SW,225,1.1,0.0,80,0.00,CLR,,0.00,WeatherDisplay:10.37,2013-08-25 08:26:00,
2013-08-25 03:31:00,78.1,71.4,29.06,South,180,0.0,0.0,80,0.00,CLR,,0.00,WeatherDisplay:10.37,2013-08-25 08:31:00,
2013-08-25 03:36:00,78.1,71.4,29.07,SW,225,0.0,0.0,80,0.00,CLR,,0.00,WeatherDisplay:10.37,2013-08-25 08:36:00,
2013-08-25 03:41:00,78.1,71.4,29.07,South,180,10.4,0.0,80,0.00,CLR,,0.00,WeatherDisplay:10.37,2013-08-25 08:41:00,
2013-08-25 03:46:00,78.1,71.4,29.07,South,180,0.0,0.0,80,0.00,CLR,,0.00,WeatherDisplay:10.37,2013-08-25 08:46:00,
2013-08-25 03:51:00,78.1,71.4,29.07,SW,225,0.0,0.0,80,0.00,CLR,,0.00,WeatherDisplay:10.37,2013-08-25 08:51:00,
2013-08-25 03:56:00,78.1,71.4,29.06,SW,225,0.0,0.0,80,0.00,CLR,,0.00,WeatherDisplay:10.37,2013-08-25 08:56:00,
2013-08-25 04:01:00,78.1,71.4,29.06,South,180,0.0,0.0,80,0.00,CLR,,0.00,WeatherDisplay:10.37,2013-08-25 09:01:00,
2013-08-25 04:06:00,78.1,71.4,29.06,South,180,0.0,0.0,80,0.00,CLR,,0.00,WeatherDisplay:10.37,2013-08-25 09:06:00,
2013-08-25 04:11:00,78.1,71.4,29.07,SW,225,0.0,0.0,80,0.00,CLR,,0.00,WeatherDisplay:10.37,2013-08-25 09:11:00,
2013-08-25 04:16:00,78.1,71.4,29.07,South,180,0.0,0.0,80,0.00,CLR,,0.00,WeatherDisplay:10.37,2013-08-25 09:16:00,
2013-08-25 04:21:00,78.1,71.4,29.07,South,180,0.0,0.0,80,0.00,CLR,,0.00,WeatherDisplay:10.37,2013-08-25 09:21:00,
2013-08-25 04:26:00,77.7,71.1,29.07,SW,225,0.0,0.0,80,0.00,CLR,,0.00,WeatherDisplay:10.37,2013-08-25 09:26:00,
2013-08-25 04:31:00,77.7,71.1,29.07,South,180,1.1,0.0,80,0.00,CLR,,0.00,WeatherDisplay:10.37,2013-08-25 09:31:00,
2013-08-25 04:36:00,77.7,71.1,29.07,South,180,0.0,0.0,80,0.00,CLR,,0.00,WeatherDisplay:10.37,2013-08-25 09:36:00,
2013-08-25 04:41:00,77.7,71.1,29.07,SW,225,0.0,0.0,80,0.00,CLR,,0.00,WeatherDisplay:10.37,2013-08-25 09:41:00,
2013-08-25 04:46:00,77.7,71.1,29.07,SW,225,0.0,0.0,80,0.00,CLR,,0.00,WeatherDisplay:10.37,2013-08-25 09:46:00,
2013-08-25 04:51:00,77.5,70.9,29.07,South,180,0.0,0.0,80,0.00,CLR,,0.00,WeatherDisplay:10.37,2013-08-25 09:51:00,
2013-08-25 04:56:00,77.5,70.9,29.08,South,180,0.0,0.0,80,0.00,CLR,,0.00,WeatherDisplay:10.37,2013-08-25 09:56:00,
2013-08-25 05:01:00,77.5,70.9,29.07,South,180,0.0,0.0,80,0.00,CLR,,0.00,WeatherDisplay:10.37,2013-08-25 10:01:00,
2013-08-25 05:06:00,77.4,70.7,29.08,SW,225,1.1,0.0,80,0.00,CLR,,0.00,WeatherDisplay:10.37,2013-08-25 10:06:00,
2013-08-25 05:11:00,77.5,70.9,29.08,SW,225,0.0,0.0,80,0.00,CLR,,0.00,WeatherDisplay:10.37,2013-08-25 10:11:00,
2013-08-25 05:16:00,77.4,70.7,29.08,SW,225,0.0,0.0,80,0.00,CLR,,0.00,WeatherDisplay:10.37,2013-08-25 10:16:00,
2013-08-25 05:21:00,77.4,70.7,29.07,SW,225,0.0,0.0,80,0.00,CLR,,0.00,WeatherDisplay:10.37,2013-08-25 10:21:00,
2013-08-25 05:26:00,77.4,70.7,29.08,South,180,0.0,0.0,80,0.00,CLR,,0.00,WeatherDisplay:10.37,2013-08-25 10:26:00,
2013-08-25 05:31:00,77.4,70.7,29.08,SW,225,0.0,0.0,80,0.00,CLR,,0.00,WeatherDisplay:10.37,2013-08-25 10:31:00,
2013-08-25 05:36:00,77.2,70.5,29.08,SW,225,0.0,0.0,80,0.00,CLR,,0.00,WeatherDisplay:10.37,2013-08-25 10:36:00,
2013-08-25 05:41:00,77.2,70.5,29.08,South,180,0.0,0.0,80,0.00,CLR,,0.00,WeatherDisplay:10.37,2013-08-25 10:41:00,
2013-08-25 05:46:00,77.2,70.5,29.08,South,180,10.4,10.4,80,0.00,CLR,,0.00,WeatherDisplay:10.37,2013-08-25 10:46:00,
2013-08-25 05:51:00,77.2,70.5,29.08,South,180,5.8,5.8,80,0.00,CLR,,0.00,WeatherDisplay:10.37,2013-08-25 10:51:00,
2013-08-25 05:56:00,77.0,70.4,29.08,South,180,0.0,0.0,80,0.00,CLR,,0.00,WeatherDisplay:10.37,2013-08-25 10:56:00,
2013-08-25 06:01:00,77.0,70.4,29.08,South,180,0.0,0.0,80,0.00,CLR,,0.00,WeatherDisplay:10.37,2013-08-25 11:01:00,
2013-08-25 06:06:00,77.0,70.4,29.08,South,180,0.0,0.0,80,0.00,CLR,,0.00,WeatherDisplay:10.37,2013-08-25 11:06:00,
2013-08-25 06:11:00,77.0,70.7,29.08,SW,225,0.0,0.0,81,0.00,CLR,,0.00,WeatherDisplay:10.37,2013-08-25 11:11:00,
2013-08-25 06:16:00,77.0,70.7,29.09,SW,225,0.0,0.0,81,0.00,CLR,,0.00,WeatherDisplay:10.37,2013-08-25 11:16:00,
2013-08-25 06:21:00,76.8,70.2,29.08,South,180,1.1,0.0,80,0.00,CLR,,0.00,WeatherDisplay:10.37,2013-08-25 11:21:00,
2013-08-25 06:26:00,76.8,70.5,29.09,South,180,0.0,0.0,81,0.00,CLR,,0.00,WeatherDisplay:10.37,2013-08-25 11:26:00,
2013-08-25 06:31:00,76.8,70.2,29.09,South,180,0.0,0.0,80,0.00,CLR,,0.00,WeatherDisplay:10.37,2013-08-25 11:31:00,
2013-08-25 06:36:00,76.8,70.2,29.09,SW,225,0.0,0.0,80,0.00,CLR,,0.00,WeatherDisplay:10.37,2013-08-25 11:36:00,
2013-08-25 06:41:00,76.8,70.2,29.09,SW,225,0.0,0.0,80,0.00,CLR,,0.00,WeatherDisplay:10.37,2013-08-25 11:41:00,
2013-08-25 06:46:00,77.0,70.7,29.09,South,180,0.0,0.0,81,0.00,CLR,,0.00,WeatherDisplay:10.37,2013-08-25 11:46:00,
2013-08-25 06:51:00,76.8,70.2,29.09,SW,225,0.0,3.1,80,0.00,CLR,,0.00,WeatherDisplay:10.37,2013-08-25 11:51:00,
2013-08-25 06:56:00,77.0,70.7,29.10,South,180,0.0,0.0,81,0.00,CLR,,0.00,WeatherDisplay:10.37,2013-08-25 11:56:00,
2013-08-25 07:01:00,77.0,70.7,29.09,South,180,0.0,0.0,81,0.00,CLR,,0.00,WeatherDisplay:10.37,2013-08-25 12:01:00,
2013-08-25 07:06:00,77.0,70.7,29.09,SW,225,0.0,0.0,81,0.00,CLR,,0.00,WeatherDisplay:10.37,2013-08-25 12:06:00,
2013-08-25 07:11:00,77.2,70.9,29.10,South,180,0.0,0.0,81,0.00,CLR,,0.00,WeatherDisplay:10.37,2013-08-25 12:11:00,
2013-08-25 07:16:00,77.2,70.9,29.09,South,180,0.0,0.0,81,0.00,CLR,,0.00,WeatherDisplay:10.37,2013-08-25 12:16:00,
2013-08-25 07:21:00,77.4,71.4,29.09,South,180,0.0,0.0,82,0.00,CLR,,0.00,WeatherDisplay:10.37,2013-08-25 12:21:00,
2013-08-25 07:26:00,77.2,71.3,29.09,South,180,1.1,0.0,82,0.00,CLR,,0.00,WeatherDisplay:10.37,2013-08-25 12:26:00,
2013-08-25 07:31:00,77.4,71.4,29.09,South,180,0.0,0.0,82,0.00,CLR,,0.00,WeatherDisplay:10.37,2013-08-25 12:31:00,
2013-08-25 07:36:00,77.5,71.2,29.09,SW,225,0.0,0.0,81,0.00,CLR,,0.00,WeatherDisplay:10.37,2013-08-25 12:36:00,
2013-08-25 07:41:00,77.7,70.7,29.09,SW,225,10.4,0.0,79,0.00,CLR,,0.00,WeatherDisplay:10.37,2013-08-25 12:41:00,
2013-08-25 07:46:00,77.7,70.7,29.09,South,180,0.0,0.0,79,0.00,CLR,,0.00,WeatherDisplay:10.37,2013-08-25 12:46:00,
2013-08-25 07:51:00,78.1,70.7,29.09,South,180,0.0,0.0,78,0.00,CLR,,0.00,WeatherDisplay:10.37,2013-08-25 12:51:00,
2013-08-25 07:56:00,78.4,71.0,29.09,SW,225,11.5,0.0,78,0.00,CLR,,0.00,WeatherDisplay:10.37,2013-08-25 12:56:00,
2013-08-25 08:01:00,78.6,70.8,29.09,South,180,5.8,0.0,77,0.00,CLR,,0.00,WeatherDisplay:10.37,2013-08-25 13:01:00,
2013-08-25 08:06:00,79.2,70.9,29.09,South,180,9.2,0.0,76,0.00,CLR,,0.00,WeatherDisplay:10.37,2013-08-25 13:06:00,
2013-08-25 08:11:00,79.2,71.3,29.09,SW,225,6.9,6.9,77,0.00,CLR,,0.00,WeatherDisplay:10.37,2013-08-25 13:11:00,
2013-08-25 08:16:00,79.5,70.9,29.08,SW,225,0.0,0.0,75,0.00,CLR,,0.00,WeatherDisplay:10.37,2013-08-25 13:16:00,
2013-08-25 08:21:00,79.9,71.2,29.09,SW,225,8.1,0.0,75,0.00,CLR,,0.00,WeatherDisplay:10.37,2013-08-25 13:21:00,
2013-08-25 08:26:00,80.1,71.4,29.09,SW,225,8.1,0.0,75,0.00,CLR,,0.00,WeatherDisplay:10.37,2013-08-25 13:26:00,
2013-08-25 08:31:00,80.4,71.4,29.08,SW,225,3.5,0.0,74,0.00,CLR,,0.00,WeatherDisplay:10.37,2013-08-25 13:31:00,
2013-08-25 08:36:00,80.6,71.1,29.08,SW,225,1.1,0.0,73,0.00,CLR,,0.00,WeatherDisplay:10.37,2013-08-25 13:36:00,
2013-08-25 08:41:00,80.6,71.1,29.08,South,180,1.1,0.0,73,0.00,CLR,,0.00,WeatherDisplay:10.37,2013-08-25 13:41:00,
2013-08-25 08:46:00,80.8,70.9,29.08,South,180,0.0,0.0,72,0.00,CLR,,0.00,WeatherDisplay:10.37,2013-08-25 13:46:00,
2013-08-25 08:51:00,81.3,71.4,29.08,SW,225,1.1,0.0,72,0.00,CLR,,0.00,WeatherDisplay:10.37,2013-08-25 13:51:00,
2013-08-25 08:56:00,81.5,71.6,29.08,SW,225,1.1,2.2,72,0.00,CLR,,0.00,WeatherDisplay:10.37,2013-08-25 13:56:00,
2013-08-25 09:01:00,81.7,71.4,29.08,SW,225,1.1,0.0,71,0.00,CLR,,0.00,WeatherDisplay:10.37,2013-08-25 14:01:00,
2013-08-25 09:06:00,82.2,71.5,29.08,West,270,1.1,0.0,70,0.00,CLR,,0.00,WeatherDisplay:10.37,2013-08-25 14:06:00,
2013-08-25 09:11:00,82.4,71.2,29.08,SW,225,1.1,0.0,69,0.00,CLR,,0.00,WeatherDisplay:10.37,2013-08-25 14:11:00,
2013-08-25 09:16:00,82.2,71.5,29.08,SW,225,8.1,0.0,70,0.00,CLR,,0.00,WeatherDisplay:10.37,2013-08-25 14:16:00,
2013-08-25 09:21:00,82.8,72.0,29.07,SW,225,8.1,0.0,70,0.00,CLR,,0.00,WeatherDisplay:10.37,2013-08-25 14:21:00,
2013-08-25 09:26:00,83.3,71.6,29.08,SW,225,8.1,0.0,68,0.00,CLR,,0.00,WeatherDisplay:10.37,2013-08-25 14:26:00,
2013-08-25 09:31:00,82.8,71.5,29.08,SW,225,17.3,17.3,69,0.00,CLR,,0.00,WeatherDisplay:10.37,2013-08-25 14:31:00,
2013-08-25 09:36:00,84.6,72.4,29.08,SW,225,3.5,3.5,67,0.00,CLR,,0.00,WeatherDisplay:10.37,2013-08-25 14:36:00,
2013-08-25 09:41:00,85.3,72.2,29.08,SW,225,1.1,0.0,65,0.00,CLR,,0.00,WeatherDisplay:10.37,2013-08-25 14:41:00,
2013-08-25 09:46:00,85.1,72.5,29.08,NNW,338,4.6,0.0,66,0.00,CLR,,0.00,WeatherDisplay:10.37,2013-08-25 14:46:00,
2013-08-25 09:51:00,85.5,72.3,29.08,South,180,5.8,0.0,65,0.00,CLR,,0.00,WeatherDisplay:10.37,2013-08-25 14:51:00,
2013-08-25 09:56:00,85.5,72.3,29.08,South,180,4.6,0.0,65,0.00,CLR,,0.00,WeatherDisplay:10.37,2013-08-25 14:56:00,
2013-08-25 10:01:00,84.9,72.3,29.08,SW,225,3.5,0.0,66,0.00,CLR,,0.00,WeatherDisplay:10.37,2013-08-25 15:01:00,
2013-08-25 10:06:00,84.7,72.1,29.08,SW,225,5.8,0.0,66,0.00,CLR,,0.00,WeatherDisplay:10.37,2013-08-25 15:06:00,
2013-08-25 10:11:00,84.6,71.9,29.08,South,180,5.8,5.8,66,0.00,CLR,,0.00,WeatherDisplay:10.37,2013-08-25 15:11:00,
2013-08-25 10:16:00,84.9,72.3,29.08,SW,225,5.8,0.0,66,0.00,CLR,,0.00,WeatherDisplay:10.37,2013-08-25 15:16:00,
2013-08-25 10:21:00,85.6,72.1,29.08,SW,225,6.9,0.0,64,0.00,CLR,,0.00,WeatherDisplay:10.37,2013-08-25 15:21:00,
2013-08-25 10:26:00,86.9,73.3,29.08,South,180,4.6,4.6,64,0.00,CLR,,0.00,WeatherDisplay:10.37,2013-08-25 15:26:00,
2013-08-25 10:31:00,86.9,72.3,29.07,South,180,5.8,0.0,62,0.00,CLR,,0.00,WeatherDisplay:10.37,2013-08-25 15:31:00,
2013-08-25 10:36:00,86.4,72.3,29.07,SW,225,3.5,0.0,63,0.00,CLR,,0.00,WeatherDisplay:10.37,2013-08-25 15:36:00,
2013-08-25 10:41:00,86.4,72.3,29.07,SW,225,5.8,0.0,63,0.00,CLR,,0.00,WeatherDisplay:10.37,2013-08-25 15:41:00,
2013-08-25 10:46:00,86.4,72.3,29.08,SW,225,1.1,0.0,63,0.00,CLR,,0.00,WeatherDisplay:10.37,2013-08-25 15:46:00,
2013-08-25 10:51:00,86.5,72.4,29.07,SW,225,0.0,0.0,63,0.00,CLR,,0.00,WeatherDisplay:10.37,2013-08-25 15:51:00,
2013-08-25 10:56:00,86.4,72.3,29.07,SW,225,16.1,16.1,63,0.00,CLR,,0.00,WeatherDisplay:10.37,2013-08-25 15:56:00,
2013-08-25 11:01:00,86.5,72.4,29.07,SW,225,10.4,0.0,63,0.00,CLR,,0.00,WeatherDisplay:10.37,2013-08-25 16:01:00,
2013-08-25 11:06:00,86.4,72.3,29.07,SW,225,15.0,15.0,63,0.00,CLR,,0.00,WeatherDisplay:10.37,2013-08-25 16:06:00,
2013-08-25 11:11:00,86.4,72.3,29.07,SW,225,12.7,12.7,63,0.00,CLR,,0.00,WeatherDisplay:10.37,2013-08-25 16:11:00,
2013-08-25 11:16:00,86.7,71.7,29.07,SW,225,15.0,15.0,61,0.00,CLR,,0.00,WeatherDisplay:10.37,2013-08-25 16:16:00,
2013-08-25 11:21:00,86.9,72.3,29.07,SW,225,9.2,0.0,62,0.00,CLR,,0.00,WeatherDisplay:10.37,2013-08-25 16:21:00,
2013-08-25 11:26:00,87.6,72.5,29.07,South,180,10.4,0.0,61,0.00,CLR,,0.00,WeatherDisplay:10.37,2013-08-25 16:26:00,
2013-08-25 11:31:00,87.6,72.0,29.07,SW,225,16.1,0.0,60,0.00,CLR,,0.00,WeatherDisplay:10.37,2013-08-25 16:31:00,
2013-08-25 11:36:00,87.8,72.7,29.07,South,180,1.1,0.0,61,0.00,CLR,,0.00,WeatherDisplay:10.37,2013-08-25 16:36:00,
2013-08-25 11:41:00,88.9,73.2,29.06,SW,225,1.1,2.2,60,0.00,CLR,,0.00,WeatherDisplay:10.37,2013-08-25 16:41:00,
2013-08-25 11:46:00,88.5,72.9,29.06,SW,225,0.0,0.0,60,0.00,CLR,,0.00,WeatherDisplay:10.37,2013-08-25 16:46:00,
2013-08-25 11:51:00,89.2,73.5,29.06,SW,225,3.5,0.0,60,0.00,CLR,,0.00,WeatherDisplay:10.37,2013-08-25 16:51:00,
2013-08-25 11:56:00,89.6,72.3,29.06,SW,225,3.5,0.0,57,0.00,CLR,,0.00,WeatherDisplay:10.37,2013-08-25 16:56:00,
2013-08-25 12:01:00,88.3,72.2,29.06,SW,225,0.0,0.0,59,0.00,CLR,,0.00,WeatherDisplay:10.37,2013-08-25 17:01:00,
2013-08-25 12:06:00,89.4,73.2,29.06,NW,315,5.8,0.0,59,0.00,CLR,,0.00,WeatherDisplay:10.37,2013-08-25 17:06:00,
2013-08-25 12:11:00,88.9,73.2,29.06,SW,225,6.9,6.9,60,0.00,CLR,,0.00,WeatherDisplay:10.37,2013-08-25 17:11:00,
2013-08-25 12:16:00,88.9,72.7,29.06,SW,225,1.1,0.0,59,0.00,CLR,,0.00,WeatherDisplay:10.37,2013-08-25 17:16:00,
2013-08-25 12:21:00,88.5,72.9,29.06,SW,225,9.2,9.2,60,0.00,CLR,,0.00,WeatherDisplay:10.37,2013-08-25 17:21:00,
2013-08-25 12:26:00,88.9,73.2,29.06,SW,225,10.4,10.4,60,0.00,CLR,,0.00,WeatherDisplay:10.37,2013-08-25 17:26:00,
2013-08-25 12:31:00,89.2,73.0,29.06,SW,225,0.0,0.0,59,0.00,CLR,,0.00,WeatherDisplay:10.37,2013-08-25 17:31:00,
2013-08-25 12:36:00,89.8,73.0,29.06,SW,225,1.1,3.1,58,0.00,CLR,,0.00,WeatherDisplay:10.37,2013-08-25 17:36:00,
2013-08-25 12:41:00,89.4,72.7,29.05,SW,225,17.3,17.3,58,0.00,CLR,,0.00,WeatherDisplay:10.37,2013-08-25 17:41:00,
2013-08-25 12:46:00,88.9,73.2,29.05,SW,225,8.1,8.1,60,0.00,CLR,,0.00,WeatherDisplay:10.37,2013-08-25 17:46:00,
2013-08-25 12:51:00,88.7,73.0,29.04,SW,225,1.1,0.0,60,0.00,CLR,,0.00,WeatherDisplay:10.37,2013-08-25 17:51:00,
2013-08-25 12:56:00,88.9,72.7,29.05,SW,225,11.5,11.5,59,0.00,CLR,,0.00,WeatherDisplay:10.37,2013-08-25 17:56:00,
2013-08-25 13:01:00,89.1,72.9,29.04,SW,225,12.7,12.7,59,0.00,CLR,,0.00,WeatherDisplay:10.37,2013-08-25 18:01:00,
2013-08-25 13:06:00,88.9,72.2,29.04,SW,225,17.3,17.3,58,0.00,CLR,,0.00,WeatherDisplay:10.37,2013-08-25 18:06:00,
2013-08-25 13:11:00,89.6,72.3,29.04,SW,225,3.5,0.0,57,0.00,CLR,,0.00,WeatherDisplay:10.37,2013-08-25 18:11:00,
2013-08-25 13:16:00,90.1,72.8,29.04,SW,225,1.1,0.0,57,0.00,CLR,,0.00,WeatherDisplay:10.37,2013-08-25 18:16:00,
2013-08-25 13:21:00,90.1,72.3,29.04,SW,225,20.7,20.7,56,0.00,CLR,,0.00,WeatherDisplay:10.37,2013-08-25 18:21:00,
2013-08-25 13:26:00,89.8,72.5,29.04,South,180,22.2,22.2,57,0.00,CLR,,0.00,WeatherDisplay:10.37,2013-08-25 18:26:00,
2013-08-25 13:31:00,90.0,73.2,29.03,SW,225,10.4,10.4,58,0.00,CLR,,0.00,WeatherDisplay:10.37,2013-08-25 18:31:00,
2013-08-25 13:36:00,90.3,72.5,29.03,SW,225,12.7,12.7,56,0.00,CLR,,0.00,WeatherDisplay:10.37,2013-08-25 18:36:00,
2013-08-25 13:41:00,91.0,73.2,29.03,SW,225,0.0,0.0,56,0.00,CLR,,0.00,WeatherDisplay:10.37,2013-08-25 18:41:00,
2013-08-25 13:46:00,91.0,73.2,29.03,SW,225,0.0,0.0,56,0.00,CLR,,0.00,WeatherDisplay:10.37,2013-08-25 18:46:00,
2013-08-25 13:51:00,91.8,73.8,29.03,SW,225,5.8,0.0,56,0.00,CLR,,0.00,WeatherDisplay:10.37,2013-08-25 18:51:00,
2013-08-25 13:56:00,91.0,72.6,29.03,SW,225,20.7,20.7,55,0.00,CLR,,0.00,WeatherDisplay:10.37,2013-08-25 18:56:00,
2013-08-25 14:01:00,91.2,72.8,29.02,SW,225,0.0,0.0,55,0.00,CLR,,0.00,WeatherDisplay:10.37,2013-08-25 19:01:00,
2013-08-25 14:06:00,91.8,73.3,29.02,SW,225,11.5,0.0,55,0.00,CLR,,0.00,WeatherDisplay:10.37,2013-08-25 19:06:00,
2013-08-25 14:11:00,92.3,73.2,29.02,SW,225,5.8,0.0,54,0.00,CLR,,0.00,WeatherDisplay:10.37,2013-08-25 19:11:00,
2013-08-25 14:16:00,92.5,72.9,29.02,South,180,9.2,9.2,53,0.00,CLR,,0.00,WeatherDisplay:10.37,2013-08-25 19:16:00,
2013-08-25 14:21:00,92.7,73.0,29.02,SW,225,1.1,0.0,53,0.00,CLR,,0.00,WeatherDisplay:10.37,2013-08-25 19:21:00,
2013-08-25 14:26:00,92.3,72.7,29.02,SW,225,0.0,0.0,53,0.00,CLR,,0.00,WeatherDisplay:10.37,2013-08-25 19:26:00,
2013-08-25 14:31:00,92.8,72.6,29.02,SW,225,12.7,12.7,52,0.00,CLR,,0.00,WeatherDisplay:10.37,2013-08-25 19:31:00,
2013-08-25 14:36:00,93.0,72.8,29.02,South,180,8.1,0.0,52,0.00,CLR,,0.00,WeatherDisplay:10.37,2013-08-25 19:36:00,
2013-08-25 14:41:00,93.2,73.5,29.01,SW,225,0.0,0.0,53,0.00,CLR,,0.00,WeatherDisplay:10.37,2013-08-25 19:41:00,
2013-08-25 14:46:00,93.2,73.0,29.02,South,180,0.0,0.0,52,0.00,CLR,,0.00,WeatherDisplay:10.37,2013-08-25 19:46:00,
2013-08-25 14:51:00,93.2,72.4,29.02,SW,225,1.1,0.0,51,0.00,CLR,,0.00,WeatherDisplay:10.37,2013-08-25 19:51:00,
2013-08-25 14:56:00,93.2,73.0,29.02,NW,315,17.3,17.3,52,0.00,CLR,,0.00,WeatherDisplay:10.37,2013-08-25 19:56:00,
2013-08-25 15:01:00,93.9,73.6,29.01,SW,225,5.8,0.0,52,0.00,CLR,,0.00,WeatherDisplay:10.37,2013-08-25 20:01:00,
2013-08-25 15:06:00,93.9,72.5,29.02,South,180,20.7,20.7,50,0.00,CLR,,0.00,WeatherDisplay:10.37,2013-08-25 20:06:00,
2013-08-25 15:11:00,93.2,73.0,29.01,South,180,10.4,0.0,52,0.00,CLR,,0.00,WeatherDisplay:10.37,2013-08-25 20:11:00,
2013-08-25 15:16:00,93.7,73.5,29.01,SW,225,10.4,0.0,52,0.00,CLR,,0.00,WeatherDisplay:10.37,2013-08-25 20:16:00,
2013-08-25 15:21:00,93.2,73.0,29.01,SW,225,19.6,19.6,52,0.00,CLR,,0.00,WeatherDisplay:10.37,2013-08-25 20:21:00,
2013-08-25 15:26:00,94.1,74.4,29.00,SW,225,1.1,0.0,53,0.00,CLR,,0.00,WeatherDisplay:10.37,2013-08-25 20:26:00,
2013-08-25 15:31:00,95.2,74.2,29.01,SW,225,3.5,0.0,51,0.00,CLR,,0.00,WeatherDisplay:10.37,2013-08-25 20:31:00,
2013-08-25 15:36:00,95.7,74.7,29.01,SW,225,6.9,6.9,51,0.00,CLR,,0.00,WeatherDisplay:10.37,2013-08-25 20:36:00,
2013-08-25 15:41:00,95.0,73.4,29.01,SW,225,20.7,20.7,50,0.00,CLR,,0.00,WeatherDisplay:10.37,2013-08-25 20:41:00,
2013-08-25 15:46:00,94.5,74.1,29.01,SW,225,5.8,5.8,52,0.00,CLR,,0.00,WeatherDisplay:10.37,2013-08-25 20:46:00,
2013-08-25 15:51:00,93.6,72.7,29.01,South,180,12.7,12.7,51,0.00,CLR,,0.00,WeatherDisplay:10.37,2013-08-25 20:51:00,
2013-08-25 15:56:00,93.4,73.1,29.01,SW,225,15.0,15.0,52,0.00,CLR,,0.00,WeatherDisplay:10.37,2013-08-25 20:56:00,
2013-08-25 16:01:00,93.6,72.7,29.01,SW,225,19.6,19.6,51,0.00,CLR,,0.00,WeatherDisplay:10.37,2013-08-25 21:01:00,
2013-08-25 16:06:00,93.4,73.7,29.01,South,180,15.0,0.0,53,0.00,CLR,,0.00,WeatherDisplay:10.37,2013-08-25 21:06:00,
2013-08-25 16:11:00,93.4,73.7,29.01,SW,225,8.3,0.0,53,0.00,CLR,,0.00,WeatherDisplay:10.37,2013-08-25 21:11:00,
2013-08-25 16:16:00,93.4,73.1,29.01,South,180,12.7,0.0,52,0.00,CLR,,0.00,WeatherDisplay:10.37,2013-08-25 21:16:00,
2013-08-25 16:21:00,93.7,74.0,29.01,West,270,10.4,10.4,53,0.00,CLR,,0.00,WeatherDisplay:10.37,2013-08-25 21:21:00,
2013-08-25 16:26:00,94.5,74.1,29.01,South,180,1.1,0.0,52,0.00,CLR,,0.00,WeatherDisplay:10.37,2013-08-25 21:26:00,
2013-08-25 16:31:00,94.8,74.4,29.01,SW,225,8.1,8.1,52,0.00,CLR,,0.00,WeatherDisplay:10.37,2013-08-25 21:31:00,
2013-08-25 16:36:00,93.7,72.9,29.01,SW,225,19.0,19.0,51,0.00,CLR,,0.00,WeatherDisplay:10.37,2013-08-25 21:36:00,
2013-08-25 16:41:00,93.7,73.5,29.00,NW,315,17.3,17.3,52,0.00,CLR,,0.00,WeatherDisplay:10.37,2013-08-25 21:41:00,
2013-08-25 16:46:00,94.3,74.0,29.01,SW,225,0.0,0.0,52,0.00,CLR,,0.00,WeatherDisplay:10.37,2013-08-25 21:46:00,
2013-08-25 16:51:00,94.1,73.8,29.01,South,180,13.8,13.8,52,0.00,CLR,,0.00,WeatherDisplay:10.37,2013-08-25 21:51:00,
2013-08-25 16:56:00,93.6,73.3,29.01,SW,225,19.6,19.6,52,0.00,CLR,,0.00,WeatherDisplay:10.37,2013-08-25 21:56:00,
2013-08-25 17:01:00,93.2,73.0,29.01,SW,225,20.7,20.7,52,0.00,CLR,,0.00,WeatherDisplay:10.37,2013-08-25 22:01:00,
2013-08-25 17:06:00,93.4,73.1,29.01,SW,225,17.3,17.3,52,0.00,CLR,,0.00,WeatherDisplay:10.37,2013-08-25 22:06:00,
2013-08-25 17:11:00,93.7,74.0,29.00,SW,225,10.4,10.4,53,0.00,CLR,,0.00,WeatherDisplay:10.37,2013-08-25 22:11:00,
2013-08-25 17:16:00,93.7,74.0,29.01,East,90,6.9,6.9,53,0.00,CLR,,0.00,WeatherDisplay:10.37,2013-08-25 22:16:00,
2013-08-25 17:21:00,93.2,73.0,29.01,SW,225,20.7,20.7,52,0.00,CLR,,0.00,WeatherDisplay:10.37,2013-08-25 22:21:00,
2013-08-25 17:26:00,93.0,73.4,29.01,South,180,16.1,16.1,53,0.00,CLR,,0.00,WeatherDisplay:10.37,2013-08-25 22:26:00,
2013-08-25 17:31:00,92.8,73.2,29.01,SW,225,15.0,15.0,53,0.00,CLR,,0.00,WeatherDisplay:10.37,2013-08-25 22:31:00,
2013-08-25 17:36:00,93.2,73.5,29.00,SW,225,10.4,10.4,53,0.00,CLR,,0.00,WeatherDisplay:10.37,2013-08-25 22:36:00,
2013-08-25 17:41:00,93.0,73.9,29.01,SW,225,10.4,10.4,54,0.00,CLR,,0.00,WeatherDisplay:10.37,2013-08-25 22:41:00,
2013-08-25 17:46:00,92.5,73.4,29.01,SW,225,20.7,20.7,54,0.00,CLR,,0.00,WeatherDisplay:10.37,2013-08-25 22:46:00,
2013-08-25 17:51:00,92.7,73.6,29.01,SW,225,14.5,14.5,54,0.00,CLR,,0.00,WeatherDisplay:10.37,2013-08-25 22:51:00,
2013-08-25 17:56:00,92.7,74.1,29.00,South,180,8.1,0.0,55,0.00,CLR,,0.00,WeatherDisplay:10.37,2013-08-25 22:56:00,
2013-08-25 18:01:00,92.5,74.0,29.00,SW,225,9.2,9.2,55,0.00,CLR,,0.00,WeatherDisplay:10.37,2013-08-25 23:01:00,
2013-08-25 18:06:00,92.3,73.8,29.01,SW,225,19.6,19.6,55,0.00,CLR,,0.00,WeatherDisplay:10.37,2013-08-25 23:06:00,
2013-08-25 18:11:00,91.9,73.5,29.00,North,0,17.3,0.0,55,0.00,CLR,,0.00,WeatherDisplay:10.37,2013-08-25 23:11:00,
2013-08-25 18:16:00,91.9,73.5,29.00,SW,225,16.1,16.1,55,0.00,CLR,,0.00,WeatherDisplay:10.37,2013-08-25 23:16:00,
2013-08-25 18:21:00,91.9,74.0,29.01,NW,315,10.4,0.0,56,0.00,CLR,,0.00,WeatherDisplay:10.37,2013-08-25 23:21:00,
2013-08-25 18:26:00,91.4,73.5,29.01,South,180,21.9,21.9,56,0.00,CLR,,0.00,WeatherDisplay:10.37,2013-08-25 23:26:00,
2013-08-25 18:31:00,91.2,73.3,29.01,South,180,16.1,16.1,56,0.00,CLR,,0.00,WeatherDisplay:10.37,2013-08-25 23:31:00,
2013-08-25 18:36:00,91.2,73.3,29.01,SW,225,10.4,10.4,56,0.00,CLR,,0.00,WeatherDisplay:10.37,2013-08-25 23:36:00,
2013-08-25 18:41:00,91.0,73.7,29.01,SW,225,0.0,0.0,57,0.00,CLR,,0.00,WeatherDisplay:10.37,2013-08-25 23:41:00,
2013-08-25 18:46:00,90.9,74.0,29.01,South,180,0.0,0.0,58,0.00,CLR,,0.00,WeatherDisplay:10.37,2013-08-25 23:46:00,
2013-08-25 18:51:00,90.9,74.5,29.01,SW,225,6.9,6.9,59,0.00,CLR,,0.00,WeatherDisplay:10.37,2013-08-25 23:51:00,
2013-08-25 18:56:00,90.7,74.9,29.01,SW,225,8.1,8.1,60,0.00,CLR,,0.00,WeatherDisplay:10.37,2013-08-25 23:56:00,
2013-08-25 19:01:00,90.1,74.9,29.01,SW,225,11.5,11.5,61,0.00,CLR,,0.00,WeatherDisplay:10.37,2013-08-26 00:01:00,
2013-08-25 19:06:00,89.6,74.9,29.01,SW,225,12.7,12.7,62,0.00,CLR,,0.00,WeatherDisplay:10.37,2013-08-26 00:06:00,
2013-08-25 19:11:00,89.4,74.7,29.01,SW,225,10.4,0.0,62,0.00,CLR,,0.00,WeatherDisplay:10.37,2013-08-26 00:11:00,
2013-08-25 19:16:00,88.9,74.7,29.01,SW,225,0.0,0.0,63,0.00,CLR,,0.00,WeatherDisplay:10.37,2013-08-26 00:16:00,
2013-08-25 19:21:00,88.2,74.4,29.02,SW,225,13.7,13.7,64,0.00,CLR,,0.00,WeatherDisplay:10.37,2013-08-26 00:21:00,
2013-08-25 19:26:00,88.0,74.7,29.01,SW,225,0.0,0.0,65,0.00,CLR,,0.00,WeatherDisplay:10.37,2013-08-26 00:26:00,
2013-08-25 19:31:00,88.0,74.7,29.01,South,180,0.0,0.0,65,0.00,CLR,,0.00,WeatherDisplay:10.37,2013-08-26 00:31:00,
2013-08-25 19:36:00,87.4,74.7,29.01,South,180,1.1,0.0,66,0.00,CLR,,0.00,WeatherDisplay:10.37,2013-08-26 00:36:00,
2013-08-25 19:41:00,87.3,75.0,29.01,SW,225,1.1,0.0,67,0.00,CLR,,0.00,WeatherDisplay:10.37,2013-08-26 00:41:00,
2013-08-25 19:46:00,87.1,74.8,29.02,SW,225,8.1,8.1,67,0.00,CLR,,0.00,WeatherDisplay:10.37,2013-08-26 00:46:00,
2013-08-25 19:51:00,86.9,75.1,29.02,SW,225,1.1,0.0,68,0.00,CLR,,0.00,WeatherDisplay:10.37,2013-08-26 00:51:00,
2013-08-25 19:56:00,86.7,74.9,29.02,SW,225,17.3,17.3,68,0.00,CLR,,0.00,WeatherDisplay:10.37,2013-08-26 00:56:00,
2013-08-25 20:01:00,86.5,75.2,29.02,SW,225,9.2,9.2,69,0.00,CLR,,0.00,WeatherDisplay:10.37,2013-08-26 01:01:00,
2013-08-25 20:06:00,86.4,75.0,29.02,SW,225,9.2,0.0,69,0.00,CLR,,0.00,WeatherDisplay:10.37,2013-08-26 01:06:00,
2013-08-25 20:11:00,86.0,74.6,29.02,South,180,0.0,0.0,69,0.00,CLR,,0.00,WeatherDisplay:10.37,2013-08-26 01:11:00,
2013-08-25 20:16:00,86.0,75.1,29.02,SW,225,15.0,15.0,70,0.00,CLR,,0.00,WeatherDisplay:10.37,2013-08-26 01:16:00,
2013-08-25 20:21:00,85.6,74.7,29.02,SW,225,15.0,15.0,70,0.00,CLR,,0.00,WeatherDisplay:10.37,2013-08-26 01:21:00,
2013-08-25 20:26:00,85.5,75.0,29.02,SW,225,11.5,11.5,71,0.00,CLR,,0.00,WeatherDisplay:10.37,2013-08-26 01:26:00,
2013-08-25 20:31:00,85.1,75.1,29.03,SE,135,0.0,0.0,72,0.00,CLR,,0.00,WeatherDisplay:10.37,2013-08-26 01:31:00,
2013-08-25 20:36:00,84.9,74.9,29.03,South,180,12.7,12.7,72,0.00,CLR,,0.00,WeatherDisplay:10.37,2013-08-26 01:36:00,
2013-08-25 20:41:00,84.7,74.7,29.03,SW,225,1.1,0.0,72,0.00,CLR,,0.00,WeatherDisplay:10.37,2013-08-26 01:41:00,
2013-08-25 20:46:00,84.6,74.5,29.03,SW,225,0.0,0.0,72,0.00,CLR,,0.00,WeatherDisplay:10.37,2013-08-26 01:46:00,
2013-08-25 20:51:00,84.7,75.1,29.03,SW,225,10.4,0.0,73,0.00,CLR,,0.00,WeatherDisplay:10.37,2013-08-26 01:51:00,
2013-08-25 20:56:00,84.4,74.8,29.04,SW,225,0.0,0.0,73,0.00,CLR,,0.00,WeatherDisplay:10.37,2013-08-26 01:56:00,
2013-08-25 21:01:00,84.2,74.6,29.03,South,180,11.5,11.5,73,0.00,CLR,,0.00,WeatherDisplay:10.37,2013-08-26 02:01:00,
2013-08-25 21:06:00,84.2,74.6,29.03,South,180,11.5,11.5,73,0.00,CLR,,0.00,WeatherDisplay:10.37,2013-08-26 02:06:00,
2013-08-25 21:11:00,84.0,74.4,29.04,South,180,0.0,0.0,73,0.00,CLR,,0.00,WeatherDisplay:10.37,2013-08-26 02:11:00,
2013-08-25 21:16:00,84.0,74.4,29.03,South,180,0.0,0.0,73,0.00,CLR,,0.00,WeatherDisplay:10.37,2013-08-26 02:16:00,
2013-08-25 21:21:00,83.8,74.3,29.03,SW,225,0.0,0.0,73,0.00,CLR,,0.00,WeatherDisplay:10.37,2013-08-26 02:21:00,
2013-08-25 21:26:00,83.7,74.5,29.03,South,180,0.0,0.0,74,0.00,CLR,,0.00,WeatherDisplay:10.37,2013-08-26 02:26:00,
2013-08-25 21:31:00,83.7,74.5,29.03,SW,225,1.1,0.0,74,0.00,CLR,,0.00,WeatherDisplay:10.37,2013-08-26 02:31:00,
2013-08-25 21:36:00,83.5,74.3,29.03,South,180,10.4,10.4,74,0.00,CLR,,0.00,WeatherDisplay:10.37,2013-08-26 02:36:00,
2013-08-25 21:41:00,83.3,74.1,29.03,SW,225,0.0,0.0,74,0.00,CLR,,0.00,WeatherDisplay:10.37,2013-08-26 02:41:00,
2013-08-25 21:46:00,83.3,74.1,29.03,South,180,0.0,0.0,74,0.00,CLR,,0.00,WeatherDisplay:10.37,2013-08-26 02:46:00,
2013-08-25 21:51:00,83.1,74.0,29.03,SW,225,0.0,0.0,74,0.00,CLR,,0.00,WeatherDisplay:10.37,2013-08-26 02:51:00,
2013-08-25 21:56:00,82.9,74.2,29.03,SW,225,0.0,0.0,75,0.00,CLR,,0.00,WeatherDisplay:10.37,2013-08-26 02:56:00,
2013-08-25 22:01:00,83.1,74.4,29.03,SW,225,8.1,0.0,75,0.00,CLR,,0.00,WeatherDisplay:10.37,2013-08-26 03:01:00,
2013-08-25 22:06:00,82.8,74.0,29.03,South,180,1.1,0.0,75,0.00,CLR,,0.00,WeatherDisplay:10.37,2013-08-26 03:06:00,
2013-08-25 22:11:00,82.6,73.8,29.03,SW,225,9.2,0.0,75,0.00,CLR,,0.00,WeatherDisplay:10.37,2013-08-26 03:11:00,
2013-08-25 22:16:00,82.6,73.8,29.03,SW,225,1.1,0.0,75,0.00,CLR,,0.00,WeatherDisplay:10.37,2013-08-26 03:16:00,
2013-08-25 22:21:00,82.4,73.7,29.03,SW,225,0.0,0.0,75,0.00,CLR,,0.00,WeatherDisplay:10.37,2013-08-26 03:21:00,
2013-08-25 22:26:00,82.4,73.7,29.03,SW,225,0.0,0.0,75,0.00,CLR,,0.00,WeatherDisplay:10.37,2013-08-26 03:26:00,
2013-08-25 22:31:00,82.0,73.7,29.03,South,180,0.0,0.0,76,0.00,CLR,,0.00,WeatherDisplay:10.37,2013-08-26 03:31:00,
2013-08-25 22:36:00,82.0,73.7,29.03,South,180,0.0,0.0,76,0.00,CLR,,0.00,WeatherDisplay:10.37,2013-08-26 03:36:00,
2013-08-25 22:41:00,81.9,73.5,29.03,SW,225,0.0,0.0,76,0.00,CLR,,0.00,WeatherDisplay:10.37,2013-08-26 03:41:00,
2013-08-25 22:46:00,81.9,73.5,29.03,SW,225,10.4,10.4,76,0.00,CLR,,0.00,WeatherDisplay:10.37,2013-08-26 03:46:00,
2013-08-25 22:51:00,81.9,73.5,29.02,South,180,0.0,0.0,76,0.00,CLR,,0.00,WeatherDisplay:10.37,2013-08-26 03:51:00,
2013-08-25 22:56:00,81.5,73.2,29.02,South,180,0.0,0.0,76,0.00,CLR,,0.00,WeatherDisplay:10.37,2013-08-26 03:56:00,
2013-08-25 23:01:00,81.5,73.6,29.02,South,180,0.0,0.0,77,0.00,CLR,,0.00,WeatherDisplay:10.37,2013-08-26 04:01:00,
2013-08-25 23:06:00,81.5,73.2,29.02,SW,225,0.0,0.0,76,0.00,CLR,,0.00,WeatherDisplay:10.37,2013-08-26 04:06:00,
2013-08-25 23:11:00,81.3,73.0,29.02,South,180,0.0,0.0,76,0.00,CLR,,0.00,WeatherDisplay:10.37,2013-08-26 04:11:00,
2013-08-25 23:16:00,81.1,73.2,29.01,South,180,10.4,0.0,77,0.00,CLR,,0.00,WeatherDisplay:10.37,2013-08-26 04:16:00,
2013-08-25 23:21:00,81.1,73.2,29.01,SW,225,8.1,0.0,77,0.00,CLR,,0.00,WeatherDisplay:10.37,2013-08-26 04:21:00,
2013-08-25 23:26:00,81.0,73.1,29.01,SW,225,8.1,8.1,77,0.00,CLR,,0.00,WeatherDisplay:10.37,2013-08-26 04:26:00,
2013-08-25 23:31:00,81.0,73.1,29.00,SW,225,8.1,0.0,77,0.00,CLR,,0.00,WeatherDisplay:10.37,2013-08-26 04:31:00,
2013-08-25 23:36:00,81.0,73.1,29.01,South,180,8.1,8.1,77,0.00,CLR,,0.00,WeatherDisplay:10.37,2013-08-26 04:36:00,
2013-08-25 23:41:00,80.8,72.9,29.00,South,180,9.2,0.0,77,0.00,CLR,,0.00,WeatherDisplay:10.37,2013-08-26 04:41:00,
2013-08-25 23:46:00,80.8,72.9,29.00,SW,225,8.1,0.0,77,0.00,CLR,,0.00,WeatherDisplay:10.37,2013-08-26 04:46:00,
2013-08-25 23:51:00,80.8,72.5,29.00,South,180,9.2,9.2,76,0.00,CLR,,0.00,WeatherDisplay:10.37,2013-08-26 04:51:00,
2013-08-25 23:56:00,81.0,72.7,29.00,SW,225,10.4,10.4,76,0.00,CLR,,0.00,WeatherDisplay:10.37,2013-08-26 04:56:00,